Regional Weather Roundup
Issued by NWS Pendleton, OR

Home | Current Version | Previous Version | Text Only | Print | Product List | Glossary On
Versions: 1 2 3 4 5 6 7 8 9 10 11 12 13 14 15 16 17 18 19 20 21 22 23 24 25 26 27 28 29 30 31 32 33 34 35 36 37 38 39 40 41 42 43 44 45 46 47 48 49 50
000
ASUS46 KPDT 061825
RWRPDT
PENDLETON REGIONAL WEATHER ROUNDUP
NATIONAL WEATHER SERVICE PENDLETON OREGON
1000 AM PST FRI MAR 6 2015

NOTE: FAIR INDICATES FEW OR NO CLOUDS BELOW 12,000 FEET WITH NO
SIGNIFICANT WEATHER AND/OR OBSTRUCTIONS TO VISIBILITY.

# INDICATES UNOFFICIAL STATION AND DATA

WAZ520-061910-
EAST SLOPES OF WASHINGTON CASCADES

CITY            SKY/WX      TMP DP  RH  WIND    PRES   REMARKS
#BUMPING DAM    N/A         34  N/A N/A S1      N/A
#CLE ELUM HS    N/A         42  31  65  CALM    30.30F
#CLE ELUM LAKE  N/A         44  35  70  CALM    30.36S
#CLIFFDEL 2NW   N/A         39  29  67  CALM    N/A
#GLENWOOD       N/A         40  33  76  CALM    30.43S
#MANASTASH CYN  N/A         48  33  56  CALM    30.30S
#NELSON         N/A         41  35  79  CALM    30.42F
#NELSON 3SW     N/A         43  35  73  CALM    30.60S
#NILE           N/A         44  31  60  W2      29.66F
#RONALD 2NW     N/A         43  27  53  CALM    30.20S
#SNOWDEN        N/A         49  24  37  CALM    N/A
#TEANAWAY 4NE   N/A         43  35  73  N2      N/A
#TROUT LAKE 1NE N/A         48  33  56  CALM    30.41F
$$

WAZ521-061910-
SIMCOE HIGHLANDS

CITY            SKY/WX      TMP DP  RH  WIND    PRES   REMARKS
#BICKLETON HS   N/A         54  21  27  W5      N/A
#CENTERVILLE 4W N/A         46  38  73  NW1     30.12R
#CENTERVILLE 1SWN/A         42  34  73  CALM    30.39F
#GOLDENDALE     N/A         40  32  73  CALM    N/A
#GOLDENDALE 1NE N/A         45  23  41  S2      N/A
#GOLDENDALE 5WNWN/A         48  37  65  CALM    30.37S
#GOODNOE HILLS  N/A         52  36  54  SW8     N/A
#LYLE 6NE       N/A         47  37  68  CALM    30.38S
$$

WAZ026-061910-
KITTITAS VALLEY

CITY            SKY/WX      TMP DP  RH  WIND    PRES   REMARKS
#ELLENSBURG CWU N/A         44  33  65  CALM    30.35S
#ELLENSBURG 3NE N/A         44  34  68  S1      30.35F
#ELLENSBURG 1E  N/A         42  32  67  CALM    N/A
#KITTITAS 4N    N/A         48  36  63  SW1     28.67S
#KITTITAS 3S    N/A         41  34  76  CALM    30.41S
#THORP 6N       N/A         46  34  63  NW1     30.40F
$$

WAZ027-061910-
YAKIMA VALLEY

CITY            SKY/WX      TMP DP  RH  WIND    PRES   REMARKS
SUNNYSIDE AP    CLOUDY      44  32  62  S3      30.40S
YAKIMA AIRPORT  MOCLDY      49  32  52  CALM    30.40S
6HR MIN TEMP:   30; 6HR MAX TEMP:   49;

YAKIMA-VAGABOND CLOUDY      43  31  62  N1      30.38S
#DONALD 2NE     N/A         57  25  29  CALM    29.23S
#MABTON         N/A         46  37  71  CALM    30.41S
#NACHES 2SW     N/A         51  33  50  W6      30.37S
#OUTLOOK DOT    N/A         N/A N/A N/A CALM    N/A
#SELAH 8E       N/A         54  28  36  E1      N/A
#TERRACE HTS    N/A         46  36  68  CALM    30.39S
#WAPATO 4NE     N/A         57  25  29  CALM    29.23S
#WEST VALLEY    N/A         46  34  63  CALM    30.40S
#W YAKIMA       N/A         47  34  60  NE1     30.41F
#WHITE SWAN 5E  N/A         45  37  73  NE1     30.42S
$$

WAZ028-061910-
LOWER COLUMBIA BASIN...WASHINGTON

CITY            SKY/WX      TMP DP  RH  WIND    PRES   REMARKS
HANFORD         CLOUDY      46  29  51  N5      30.40R
6HR MIN TEMP:   31; 6HR MAX TEMP:   46;

PASCO           MOCLDY      45  31  58  CALM    30.42F
6HR MIN TEMP:   25; 6HR MAX TEMP:   45;

PROSSER AWOS    N/A         48  34  58  SW5     30.44R
#BASIN CITY 5SW N/A         47  31  53  CALM    30.41S
#BENTON CITY    N/A         47  35  63  CALM    30.33S
#CONNELL 5N     N/A         51  31  46  SE2     30.41F
#CONNELL 5NW    N/A         49  32  52  SE1     30.38S
#ELTOPIA        N/A         53  34  48  CALM    30.39R
#ELTOPIA 6NW    N/A         51  32  48  CALM    29.35S
#KAHLOTUS       N/A         47  33  58  SE1     30.42S
#KENNEWICK 3S   N/A         48  34  58  CALM    30.42F
#PASCO-BROADMOORN/A         53  31  43  S1      30.33F
#PATERSON       N/A         44  34  68  SE1     30.41S
#PROSSER        N/A         46  31  56  S1      30.42R
#SAGEMOOR 2W    N/A         48  34  58  CALM    30.27S
#TOUCHET 2S     N/A         49  34  56  W1      30.41S
#WEST PASCO     N/A         47  34  60  CALM    30.44S
$$

WAZ029-061910-
FOOTHILLS OF THE BLUES...WASHINGTON

CITY            SKY/WX      TMP DP  RH  WIND    PRES   REMARKS
WALLA WALLA AP  SUNNY       56  28  34  W6      30.38S
6HR MIN TEMP:   37; 6HR MAX TEMP:   56;

#DAYTON SCHOOL  N/A         57  22  25  SE3     30.38S
#LOWDEN 2SE     N/A         48  34  58  CALM    30.37S
#PLEASANT VIEW 1N/A         46  31  56  NE1     30.46S
#PRESCOTT       N/A         55  33  43  CALM    30.41R
#SUDBURY        N/A         52  N/A N/A CALM    N/A
#WHITMAN COLLEGEN/A         53  32  45  E3      30.44S
#WAITSBURG 5S   N/A         54  29  38  W3      30.48S
#WAITSBURG 8N   N/A         58  13  17  S6      30.24S
#WALLA WALLA 5E N/A         57  30  35  W2      N/A
#WALLA WALLA U  N/A         52  35  52  CALM    30.41S
#WHITMAN MISSIONN/A         48  35  60  CALM    30.42F
$$

WAZ030-061910-
BLUE MOUNTAINS...WASHINGTON

CITY            SKY/WX      TMP DP  RH  WIND    PRES   REMARKS
#DIXIE 5SE      N/A         56  17  21  S6      30.31S
#SKI BLUEWOOD   N/A         51  18  27  E2      30.36S
$$

ORZ009-041-WAZ024-061910-
COLUMBIA RIVER GORGE

CITY            SKY/WX      TMP DP  RH  WIND    PRES   REMARKS
HOOD RIVER AP   SUNNY       46  32  58  CALM    30.42F
THE DALLES AP   PTCLDY      45  35  68  CALM    30.43S
6HR MIN TEMP:   34; 6HR MAX TEMP:   45;

#ARLINGTON AIRPON/A         46  38  73  W5      30.00S
#ARLINGTON HS   N/A         44  35  70  E1      30.36R
#CELILO DOT     N/A         42  33  70  NW2     N/A
#MOSIER 1S      N/A         47  28  47  CALM    30.38S
#MURDOCK        N/A         46  38  73  SW1     30.44F
#RUFUS DOT      N/A         44  33  65  NW3     N/A

$$

ORZ510-061910-
NORTH CENTRAL OREGON

CITY            SKY/WX      TMP DP  RH  WIND    PRES   REMARKS
#CHENOWITH 1W   N/A         47  33  58  NW3     N/A
#COW CYN RST AREN/A         49  26  40  W1      N/A
#DUFUR 9E       N/A         50  34  54  CALM    30.43S
#GRASS VALLEY 1SN/A         50  34  54  W6      30.43S
#KENT DOT       N/A         51  27  39  SW3     N/A
#MAUPIN SCHOOL  N/A         45  34  65  CALM    30.42F
#MORO SCHOOL    N/A         52  37  56  S6      30.38R
#SHANIKO 5WSW   N/A         48  22  35  S8      N/A
#SHANIKO 4NW    N/A         49  25  39  SW3     30.38R
#TYGH VALLEY 2NEN/A         44  36  73  CALM    30.43S
#WAPANITIA AIRPON/A         48  35  60  CALM    30.44R
#WASCO DOT      N/A         50  35  56  CALM    N/A
#WASCO AIRPORT  N/A         48  35  60  W2      N/A
#WASCO 5NE      N/A         49  37  63  W1      30.41S
$$

ORZ511-061910-
CENTRAL OREGON

CITY            SKY/WX      TMP DP  RH  WIND    PRES   REMARKS
BEND AIRPORT    N/A         54  27  35  CALM    30.38F
MADRAS AIRPORT  PTCLDY      45  28  51  CALM    30.42S
PRINEVILLE AP   SUNNY       54  27  35  CALM    30.40R
REDMOND AIRPORT PTCLDY      51  25  36  SE5     30.39S
6HR MIN TEMP:   26; 6HR MAX TEMP:   51;

#BEND 6E        N/A         54  24  31  CALM    30.36F
#BEND 1SW       N/A         49  30  48  SW5     N/A
#BEND-AWBREY    N/A         49  31  50  SW3     30.39R
#BEND-KIM LN    N/A         52  31  44  SW6     30.36F
#CROOKED RVR RANN/A         52  30  43  S1      30.40F
#CULVER         N/A         47  29  49  CALM    30.36S
#CULVER 1E      N/A         47  30  51  NE3     30.40S
#LAKE BILLY CHINN/A         50   3  14  CALM    30.44F
#POWELL BUTTE   N/A         58  33  39  E1      29.99R
#PRINEVILLE 3N  N/A         48  32  54  NW2     30.39F
#WARM SPRINGS   N/A         47  33  58  CALM    30.38S

$$


ORZ509-061910-
EAST SLOPES OF OREGON CASCADES

CITY            SKY/WX      TMP DP  RH  WIND    PRES   REMARKS
#BLUE BOX PASS  N/A         48  -4  11  NW1     N/A
#CAMP SHERMAN   N/A         49  28  44  CALM    30.47F
#LA PINE 4NW    N/A         45  28  51  CALM    30.52S
#MT BACHELOR-MIDN/A         42   8  24  S10     N/A
#SISTERS AIRPOR N/A         49  32  52  CALM    30.17S
#SISTERS ODOT   N/A         48  N/A N/A CALM    N/A
#SISTERS 1NW    N/A         45  24  43  E7      N/A
#SISTERS 3N     N/A         51  31  46  S2      30.37S
#SUNRIVER       N/A         45  28  51  S2      30.35F
#TUMALO 3W      N/A         51  28  41  CALM    30.26R
#WANOGA BUTTE D N/A         46  14  27  W6      N/A

$$

ORZ044-061910-
LOWER COLUMBIA BASIN...OREGON

CITY            SKY/WX      TMP DP  RH  WIND    PRES   REMARKS
HERMISTON       PTCLDY      49  32  52  CALM    30.40S
6HR MIN TEMP:   26; 6HR MAX TEMP:   49;

#BOARDMAN 8SW   N/A         48  39  71  W2      30.42R
#IONE SCHOOL    N/A         55  33  43  CALM    30.36S
#IRRIGON 4NW    N/A         43  34  70  NE3     N/A
#UMATILLA SCHOOLN/A         49  38  66  CALM    30.39F
#UMATILLA       N/A         48  33  56  N1      30.39S
$$

ORZ507-061910-
NORTHERN FOOTHILLS OF THE BLUES

CITY            SKY/WX      TMP DP  RH  WIND    PRES   REMARKS
PENDLETON AIRPT SUNNY       53  26  35  SW3     30.38R
6HR MIN TEMP:   33; 6HR MAX TEMP:   54;

#ADAMS 3WNW     N/A         57  32  38  CALM    30.42S
#ATHENA         N/A         60  26  27  CALM    30.41F
#CAYUSE         N/A         55  36  49  SW2     30.38S
#HELIX SCHOOL   N/A         57  28  33  CALM    30.41F
#HELIX 3N       N/A         56  27  33  S3      30.32S
#HELIX 6SW      N/A         53  27  36  SE1     30.36S
#HOLDMAN 5SE    N/A         58  34  40  CALM    30.37S
#HOLDMAN 6E     N/A         57  29  34  NW3     30.21S
#M-F FERNDALE   N/A         52  32  46  CALM    30.37S
#M-F GROVE ELEM N/A         53  28  38  CALM    30.35F
#M-FREEWATER 5SEN/A         58  34  40  W3      30.35F
#PENDLETON DNTN N/A         53  34  48  CALM    30.37S
#PDT AQUATIC CTRN/A         54  35  48  CALM    30.37S
#PENDLETON 5NE  N/A         59  33  37  CALM    30.32F
#PDT SUNRIDGE   N/A         53  32  45  CALM    30.39F
#PENDLETON 7NW  N/A         60  37  42  CALM    N/A
#PILOT ROCK     N/A         60  28  29  N1      30.36F
#TUTUILLA       N/A         55  32  41  NE2     30.40F
#UMAPINE 2E     N/A         51  32  48  CALM    30.36F
#WESTON SCHOOL  N/A         59  21  23  E1      30.35S

$$

ORZ508-061910-
SOUTHERN FOOTHILLS OF THE BLUES

CITY            SKY/WX      TMP DP  RH  WIND    PRES   REMARKS
LEXINGTON       PTCLDY      57  32  38  N7      30.38S
#AJAX           N/A         49  27  42  S5      30.29S
#CONDON SCHOOL  N/A         51  32  48  CALM    30.31S
#CONDON 5W      N/A         51  24  34  SW8     30.35S
#FOSSIL SCHOOL  N/A         55  29  37  CALM    30.32S
#HEPPNER EOC    N/A         60  27  28  CALM    30.34S
#HEPPNER 4NE    N/A         56  25  30  N1      30.38R
#LEXINGTON 2SE  N/A         60  28  29  N6      30.35S
#MIKKALO        N/A         52  33  48  E1      30.37R
#OLEX 4N        N/A         48  33  56  W1      30.37R
#RUGGS 5NE      N/A         60  27  28  SW6     30.52R
#RUGGS 2SW      N/A         59  28  30  E2      30.40S

$$

ORZ502-503-061910-
BLUE MOUNTAINS

CITY            SKY/WX      TMP DP  RH  WIND    PRES   REMARKS
MEACHAM         SUNNY       52  25  35  CALM    30.38F
6HR MIN TEMP:   20; 6HR MAX TEMP:   52;

#BATTLE MTN DOT N/A         39  28  64  S9      N/A
#HEPPNER 15SE   N/A         53  18  25  NE2     30.31R
#LADD CYN SMT   N/A         41  19  41  SE15    N/A    WCI 33
#LADD CREEK ODOTN/A         40  27  59  NE1     N/A
#LONG CREEK HS  N/A         45  28  51  CALM    30.37S
#N POWDER DOT   N/A         41  27  57  SW1     N/A
#PIKES PEAK     N/A         52  19  27  SW6     27.99S
#TOLLGATE       N/A         47  15  27  SW2     30.30
#TROY SCHOOL    N/A         47  30  51  CALM    30.33F
#UKIAH          N/A         39  30  70  CALM    30.55F
#WESTON 4E      N/A         57  20  23  S2      30.34F
$$

ORZ505-061910-
JOHN DAY BASIN

CITY            SKY/WX      TMP DP  RH  WIND    PRES   REMARKS
JOHN DAY        SUNNY       49  24  37  E6      30.41F
#JOHN DAY KJDY  N/A         45  30  55  E2      30.59
#DAYVILLE SCHOOLN/A         44  25  47  CALM    30.38F
#MONUMENT HS    N/A         45  26  47  CALM    30.42F
#MT. VERNON 5SE N/A         46  27  47  E1      30.37S
#SPRAY SCHOOL   N/A         47  N/A N/A CALM    N/A
#WINLOCK        N/A         54  26  34  E5      30.46S
$$

ORZ506-061910-
OCHOCO AND JOHN DAY HIGHLANDS

CITY            SKY/WX      TMP DP  RH  WIND    PRES   REMARKS
#BUCK CREEK DOT N/A         50  50  100 SE7     N/A
#HORSE RIDGE DO N/A         49  24  37  E1      N/A
#PAULINA SCHOOL N/A         44  29  55  NE1     30.38R
#PRAIRIE CITY   N/A         47  28  47  SW1     30.46F
#SENECA         N/A         33  N/A N/A CALM    N/A
#SENECA 9NW     N/A         38  27  64  SW1     30.53F
$$

ORZ049-061910-
GRANDE RONDE VALLEY

CITY            SKY/WX      TMP DP  RH  WIND    PRES   REMARKS
LA GRANDE       SUNNY       45  23  41  CALM    30.42F
#COVE           N/A         43  31  62  SE1     30.41S
#COVE SCHOOL    N/A         45  29  53  CALM    30.37S
#ELGIN 3N       N/A         46  27  47  CALM    30.37F
#ELGIN 1E       N/A         39  28  64  CALM    N/A
#IMBLER SCHOOL  N/A         46  28  49  CALM    30.35F
#ISLAND CITY 4N N/A         49  42  77  CALM    30.41R
#LADD CYN DOT   N/A         41  25  53  N2      N/A
#LA GRANDE ELEM N/A         47  26  44  CALM    30.41F
#UNION 1S       N/A         44  28  53  NW2     30.39F
$$

ORZ050-061910-
WALLOWA COUNTY

CITY            SKY/WX      TMP DP  RH  WIND    PRES   REMARKS
JOSEPH AIRPORT  SUNNY       46  21  37  N3      30.41S
#ENTERPRISE HS  N/A         43  25  49  CALM    30.37F
#IMNAHA SCHOOL  N/A         50  24  36  S2      30.40F
#IMNAHA 10S     N/A         42  24  48  CALM    30.37S
#JOSEPH 3N      N/A         43  23  45  NW2     30.38S
#JOSEPH 3W      N/A         47  21  35  NE3     30.20R
#LOSTINE        N/A         40  26  57  CALM    30.32S
#MT HOWARD 8000 N/A         44  10  24  CALM    30.43R
#PROMISE 1S     N/A         49  25  39  NE1     30.53R
#SHEEP RDG 7000 N/A         44  15  30  CALM    30.42S
#WALLOWA SCHOOL N/A         37  26  64  CALM    31.52F



$$



USA.gov is the U.S. government's official web portal to all federal, state and local government web resources and services.